Location: Treviso
(45.6669°N, 12.2430°E)
Time: 10:32:45
(UTC+02:00)

ISS - Pass Details

Date: 22 May 2017
Orbit: 402 x 407 km, 51.6° (Epoch: 21 September)

Event Time Altitude Azimuth Distance (km) Brightness Sun altitude
Exits shadow 00:43:48 33° 34° (NE) 723 -2.2 -23.7°
Drops below altitude 10° 00:45:56 10° 56° (NE) 1,490 -0.6 -23.8°
Enters shadow 01:58:39 -37° 266° (W) 8,301 2.8 -22.9°
